This demonstration page uses our WeatherBlox Daily Observations layout. Learn more.

Left ArrowRight Arrow

38.20091, -84.87328

Hourly Observations for February 7, 2018

Temp ( °F °C ) Dew Point ( °F °C ) Humidity (%) Winds ( mph kmh ) Pressure ( in mb ) Visibility ( mi km ) Precip ( " mm )
12:53 am 00:53 Cloudy with Heavy Rain 33 0.6 29 -1.7 85 85 NE 3 6 30.16 1021 3 4 0.10 2.54
1:12 am 01:12 Cloudy with Rain 33 0.6 29 -1.7 85 85 ENE 8 13 30.15 1021 3 5 0.08 2.03
1:32 am 01:32 Cloudy with Rain 33 0.6 29 -1.7 85 85 N 6 9 30.15 1021 3 5 0.14 3.56
1:41 am 01:41 Cloudy with Rain 33 0.6 29 -1.7 85 85 NE 6 9 30.15 1021 3 4 0.16 4.06
1:53 am 01:53 Cloudy with Heavy Rain 33 0.6 29 -1.7 85 85 ENE 7 11 30.09 1019 2 3 0.25 6.35
2:30 am 02:30 Cloudy with Light Rain 33 0.6 30 -1.1 89 89 ENE 6 9 30.06 1018 3 5 0.16 4.06
2:53 am 02:53 Cloudy with Light Rain 33 0.6 30 -1.1 89 89 N 5 7 30.06 1018 4 6 0.17 4.32
3:53 am 03:53 Cloudy with Rain 33 0.6 30 -1.1 89 89 N 7 11 30.04 1017 3 5 0.07 1.78
4:53 am 04:53 Cloudy with Rain 33 0.6 30 -1.1 89 89 ENE 5 7 30.02 1017 4 6 0.17 4.32
5:06 am 05:06 Cloudy with Light Rain 33 0.6 30 -1.1 89 89 E 5 7 30.03 1017 5 8 0.02 0.51
5:27 am 05:27 Cloudy with Rain 33 0.6 30 -1.1 89 89 NNW 5 7 30.03 1017 4 6 0.05 1.27
5:35 am 05:35 Cloudy with Light Rain 33 0.6 30 -1.1 89 89 NNW 6 9 30.03 1017 4 6 0.06 1.52
5:53 am 05:53 Cloudy with Light Wintry Mix 33 0.6 30 -1.1 89 89 NNW 7 11 30.04 1017 3 5 0.07 1.78
6:21 am 06:21 Cloudy with Light Wintry Mix 33 0.6 30 -1.1 89 89 NNW 7 11 30.06 1018 5 8 0.01 0.25
6:53 am 06:53 Cloudy with Mist and Fog 33 0.6 30 -1.1 89 89 NNW 10 17 30.07 1018 5 8 0.03 0.76
7:06 am 07:06 Cloudy with Light Wintry Mix 33 0.6 29 -1.7 85 85 NNW 10 17 30.12 1020 5 8 0.00 0.03
7:40 am 07:40 Cloudy with Light Freezing Rain 33 0.6 29 -1.7 85 85 NNW 10 17 30.12 1020 4 6 0.00 0.03
7:53 am 07:53 Cloudy with Freezing Rain 32 0 28 -2.2 85 85 NNW 9 15 30.09 1019 4 6 0.02 0.51
8:03 am 08:03 Cloudy with Light Freezing Rain 32 0 28 -2.2 85 85 NNW 13 20 30.15 1021 8 13 0.00 0.03
8:13 am 08:13 Cloudy 32 0 28 -2.2 85 85 NNW 10 17 30.12 1020 10 16 0.00 0.03
8:53 am 08:53 Cloudy with Mist and Fog 32 0 28 -2.2 85 85 NNW 9 15 30.11 1020 4 6 0.00 0.03
9:28 am 09:28 Cloudy with Light Freezing Rain 31 -0.6 27 -2.8 85 85 NNW 8 13 30.18 1022 4 6 0.00 0.03
9:53 am 09:53 Cloudy with Light Freezing Rain 31 -0.6 27 -2.8 85 85 NNW 6 9 30.13 1020 4 6 0.00 0.03
10:05 am 10:05 Cloudy with Light Snow 31 -0.6 26 -3.3 82 82 NW 12 19 30.18 1022 4 6 0.00 0.03
10:19 am 10:19 Cloudy with Light Snow 30 -1.1 26 -3.3 85 85 NNW 10 17 30.18 1022 3 4 0.00 0.03
10:48 am 10:48 Cloudy with Light Snow 30 -1 27 -3 86 86 NW 12 19 30.21 1023 4 6 0.00 0.03
10:53 am 10:53 Cloudy with Mist and Fog 30 -1.1 26 -3.3 85 85 NNW 10 17 30.18 1022 5 8 0.00 0.03
11:13 am 11:13 Cloudy 30 -1.1 25 -3.9 82 82 NNW 12 19 30.24 1024 7 11 0.00 0.00
11:40 am 11:40 Cloudy with Mist and Fog 30 -1.1 26 -3.3 85 85 NNW 12 19 30.24 1024 5 8 0.00 0.00
11:53 am 11:53 Cloudy with Mist and Fog 30 -1.1 26 -3.3 85 85 NNW 13 20 30.21 1023 6 10 0.00 0.00
12:53 pm 12:53 Cloudy 31 -0.6 26 -3.3 82 82 NW 9 15 30.23 1024 7 11 0.00 0.00
1:03 pm 13:03 Cloudy 31 -0.6 25 -3.9 79 79 NW 10 17 30.27 1025 8 13 0.00 0.00
1:53 pm 13:53 Cloudy 31 -0.6 25 -3.9 79 79 NNW 8 13 30.24 1024 8 13 0.00 0.00
2:21 pm 14:21 Cloudy 31 -0.6 25 -3.9 79 79 NW 7 11 30.27 1025 8 13 0.00 0.00
2:31 pm 14:31 Cloudy 31 -0.6 25 -3.9 79 79 NW 8 13 30.30 1026 7 11 0.00 0.00
2:53 pm 14:53 Cloudy with Haze 31 -0.6 24 -4.4 76 76 NW 9 15 30.26 1025 6 10 0.00 0.00
3:12 pm 15:12 Cloudy 31 -0.6 24 -4.4 76 76 VRB 5 7 30.30 1026 7 11 0.00 0.00
3:53 pm 15:53 Cloudy 31 -0.6 24 -4.4 76 76 NW 5 7 30.29 1026 7 11 0.00 0.00
4:21 pm 16:21 Partly Cloudy 31 -0.6 24 -4.4 76 76 NW 7 11 30.33 1027 8 13 0.00 0.00
4:29 pm 16:29 Mostly Cloudy 30 -1.1 23 -5 75 75 WNW 8 13 30.36 1028 7 11 0.00 0.00
4:53 pm 16:53 Cloudy 30 -1.1 23 -5 75 75 WNW 7 11 30.32 1027 7 11 0.00 0.00
5:53 pm 17:53 Cloudy 30 -1.1 23 -5 75 75 WNW 7 11 30.34 1027 8 13 0.00 0.00
6:32 pm 18:32 Partly Cloudy 29 -1.7 22 -5.6 75 75 WNW 3 6 30.39 1029 9 14 0.00 0.00
6:53 pm 18:53 Mostly Clear 28 -2.2 22 -5.6 78 78 WNW 5 7 30.37 1029 8 13 0.00 0.00
7:53 pm 19:53 Cloudy 27 -2.8 23 -5 85 85 W 3 6 30.40 1029 7 11 0.00 0.00
8:53 pm 20:53 Cloudy 29 -1.7 24 -4.4 82 82 Calm 30.41 1030 7 11 0.00 0.00
9:53 pm 21:53 Cloudy with Haze 29 -1.7 24 -4.4 82 82 SW 5 7 30.42 1030 6 10 0.00 0.00
10:35 pm 22:35 Cloudy with Haze 29 -1.7 24 -4.4 82 82 WSW 5 7 30.45 1031 5 8 0.00 0.00
10:53 pm 22:53 Cloudy with Mist and Fog 28 -2.2 24 -4.4 85 85 WSW 6 9 30.43 1031 5 8 0.00 0.00
11:19 pm 23:19 Cloudy with Haze 29 -1.7 24 -4.4 82 82 W 3 6 30.45 1031 5 8 0.00 0.00
11:38 pm 23:38 Cloudy with Haze 29 -1.7 24 -4.4 82 82 W 6 9 30.45 1031 5 8 0.00 0.00
11:53 pm 23:53 Cloudy 28 -2.2 22 -5.6 78 78 N 8 13 30.45 1031 7 11 0.00 0.00

Powered by AerisWeather